Regional Weather Roundup
Issued by NWS

Home | Current Version | Previous Version | Text Only | Print | Product List | Glossary Off
Versions: 1 2 3 4 5 6 7 8 9 10 11 12 13 14 15 16 17 18 19 20 21 22 23 24 25 26 27 28 29 30 31 32 33 34 35 36 37 38 39 40 41 42 43 44 45 46 47 48 49 50

474
ASUS44 KMEG 180510
RWRTN
TENNESSEE HOURLY STATE WEATHER ROUNDUP
NATIONAL WEATHER SERVICE MEMPHIS TN
1200 AM CDT FRI AUG 18 2017

TNZ002-004-019-021-049-052-054-088>092-180600-
WEST TENNESSEE

CITY           SKY/WX    TMP DP  RH WIND       PRES   REMARKS
MEMPHIS INTL   PTCLDY    76  73  91 W3        29.97S
NWS MEMPHIS      N/A     74 N/A N/A MISG        N/A
JACKSON        PTCLDY    75  75 100 SW6       29.96S
DYERSBURG      CLEAR     76  74  93 SW6       29.95S
SOMERVILLE     CLEAR     75  73  94 S3        29.96S
COVINGTON      CLEAR     75  73  94 SW5       29.96S
UNION CITY     CLEAR     73  72  94 S5        29.93S
PARIS          CLOUDY    75  75 100 SW7       29.93S FOG
HUNTINGDON     CLOUDY    75  75 100 SW6       29.94S
LEXINGTON      CLOUDY    73  73 100 CALM      29.96S FOG
SELMER         CLOUDY    73  73 100 SW6       29.97F
SAVANNAH       PTCLDY    75  73  94 SW5       29.96F
$$

TNZ008-025-027-028-033-062-065-066-180600-
NORTH MIDDLE TENNESSEE

CITY           SKY/WX    TMP DP  RH WIND       PRES   REMARKS
NASHVILLE      MOCLDY    78  75  90 SW7       29.94F
PORTLAND       CLOUDY    77  75  94 SW3       29.92F
CLARKSVILLE    MOCLDY    77  74  90 SW6       29.92F
SMYRNA         CLOUDY    77  75  93 SW5       29.96R
COOKEVILLE     CLOUDY    77  72  83 S8        29.95S
GALLATIN       CLOUDY    77  75  94 VRB3      29.95S
CROSSVILLE     CLOUDY    73  69  87 VRB5      30.03S
$$

TNZ061-075-076-078-094-096-097-180600-
SOUTH MIDDLE TENNESSEE

CITY           SKY/WX    TMP DP  RH WIND       PRES   REMARKS
FAYETTEVILLE   MOCLDY    77  75  94 W8        29.99S
TULLAHOMA      CLOUDY    73  72  94 SW6       30.00S
WINCHESTER     CLEAR     81  72  74 SW9       29.99F
MCMINNVILLE    MOCLDY    79  77  94 S6        29.97S
COLUMBIA       MOCLDY    75  75 100 SW8       29.94F
SHELBYVILLE    MOCLDY    73  73 100 S9        29.96F
$$

TNZ017-018-042-046-047-180600-
NORTHEAST TENNESSEE

CITY           SKY/WX    TMP DP  RH WIND       PRES   REMARKS
TRI CITIES     PTCLDY    71  70  96 CALM      30.01F
ELIZABETHTON   PTCLDY    72  70  94 VRB5      30.02F
$$

TNZ012-013-036-069-073-074-180600-
CENTRAL EAST TENNESSEE

CITY           SKY/WX    TMP DP  RH WIND       PRES   REMARKS
KNOXVILLE      CLEAR     76  70  82 SW8       29.96F
OAK RIDGE      CLEAR     77  71  82 CALM      29.98F
DOWNTOWN KNOXV CLEAR     75  73  94 CALM      29.95F
GATLINBURG     CLEAR     73  70  88 CALM      29.97F
MORRISTOWN     PTCLDY    75  72  88 CALM      29.98F
JACKSBORO      CLEAR     73  72  94 CALM      30.01S FOG
$$

TNZ083-085-099-180600-
SOUTHEAST TENNESSEE

CITY           SKY/WX    TMP DP  RH WIND       PRES   REMARKS
CHATTANOOGA    CLEAR     78  72  81 S3        29.99S
DAYTON         MOCLDY    75  75 100 CALM      29.97S
$$

SKY/WX REPORTED AS FAIR MEANS FEW OR NO CLOUDS BELOW
12 THOUSAND FEET.





USA.gov is the U.S. government's official web portal to all federal, state and local government web resources and services.